Weather History for Bismarck, ND

Change the Weather History Date:

Monday, December 15, 2014

  Actual Average Record
Temperature  
Mean Temperature 25 °F 16 °F  
Max Temperature 29 °F 26 °F 57 °F (1939)
Min Temperature 21 °F 6 °F -30 °F (1963)
Degree Days  
Heating Degree Days 40 49  
Month to date heating degree days 643 699  
Since 1 July heating degree days 2715 2685  
Cooling Degree Days 0 0  
Month to date cooling degree days 0 0  
Year to date cooling degree days 457 520  
Moisture  
Dew Point 21 °F    
Average Humidity 85    
Maximum Humidity 92    
Minimum Humidity 77    
Precipitation  
Precipitation T in 0.02 in 0.25 in (1893)
Month to date precipitation T 0.23  
Year to date precipitation 13.81 17.59  
Snow  
Snow T in 0.30 in 2.30 in (2005)
Month to date snowfall T 4.1  
Since 1 July snowfall 7.9 15.3  
Snow Depth T in    
Sea Level Pressure  
Sea Level Pressure 30.19 in    
Wind  
Wind Speed 17 mph (North)    
Max Wind Speed 29 mph    
Max Gust Speed 38 mph    
Visibility 9 miles    
Events Snow    
T = Trace of Precipitation, MM = Missing Value Source: NWS Daily Summary

Daily Weather History Graph

Daily Weather History Graph

Search for Another Location

Airport:

Trip Planner

Search our weather history database for the weather conditions in past years. The results will help you decide how hot, cold, wet, or windy it might be!

Date:

Astronomy

Dec. 15, 2014 Rise Set
Actual Time 8:21 AM CST 4:55 PM CST
Civil Twilight 7:46 AM CST 5:30 PM CST
Nautical Twilight 7:07 AM CST 6:09 PM CST
Astronomical Twilight 6:30 AM CST 6:45 PM CST
Moon 1:19 AM CST (12/15) 1:15 PM CST (12/15)
Length of Visible Light 9h 44m
Length of Day
8h 33m
Last Quarter, 39% of the Moon is Illuminated
Dec 15
Last Quarter
Dec 21
New
Dec 28
First Quarter
Jan 4
Full
Jan 13
Last Quarter

Hourly Weather History & Observations

Time (CST) Temp. Windchill Dew Point Humidity Pressure Visibility Wind Dir Wind Speed Gust Speed Precip Events Conditions
12:10 AM 28.9 °F 20.4 °F 27.0 °F 92% 29.96 in 10.0 mi NNW 9.2 mph - N/A   Overcast
12:50 AM 28.4 °F 19.1 °F 26.6 °F 93% 29.96 in 7.0 mi North 10.4 mph - N/A   Overcast
12:52 AM 28.9 °F 19.8 °F 27.0 °F 92% 30.03 in 7.0 mi North 10.4 mph - N/A   Overcast
1:52 AM 28.9 °F 18.6 °F 27.0 °F 92% 30.04 in 6.0 mi North 12.7 mph 21.9 mph N/A   Overcast
2:52 AM 28.0 °F 17.5 °F 25.0 °F 88% 30.06 in 10.0 mi North 12.7 mph - N/A   Overcast
3:08 AM 28.0 °F 15.3 °F 24.1 °F 85% 29.99 in 10.0 mi North 18.4 mph 25.3 mph N/A   Overcast
3:52 AM 28.0 °F 14.6 °F 23.0 °F 81% 30.06 in 10.0 mi North 20.7 mph 26.5 mph N/A   Overcast
4:52 AM 27.0 °F 15.2 °F 24.1 °F 89% 30.09 in 9.0 mi North 15.0 mph 24.2 mph N/A   Overcast
5:29 AM 27.0 °F 13.9 °F 21.0 °F 78% 30.02 in 10.0 mi North 18.4 mph 27.6 mph N/A   Overcast
5:52 AM 27.0 °F 16.1 °F 21.9 °F 81% 30.10 in 10.0 mi North 12.7 mph - N/A   Overcast
6:11 AM 27.0 °F 14.3 °F 23.0 °F 85% 30.04 in 10.0 mi North 17.3 mph 27.6 mph N/A   Overcast
6:52 AM 26.1 °F 11.3 °F 21.9 °F 84% 30.12 in 10.0 mi North 23.0 mph 31.1 mph N/A   Overcast
7:44 AM 26.1 °F 10.7 °F 23.0 °F 88% 30.07 in 10.0 mi North 25.3 mph 36.8 mph N/A   Overcast
7:52 AM 26.1 °F 11.6 °F 23.0 °F 88% 30.14 in 10.0 mi North 21.9 mph 36.8 mph N/A   Overcast
8:07 AM 26.1 °F 11.3 °F 23.0 °F 88% 30.07 in 10.0 mi North 23.0 mph 29.9 mph N/A   Overcast
8:52 AM 25.0 °F 11.7 °F 21.9 °F 88% 30.17 in 10.0 mi North 17.3 mph 32.2 mph N/A   Overcast
9:52 AM 25.0 °F 10.9 °F 21.9 °F 88% 30.19 in 10.0 mi North 19.6 mph 27.6 mph N/A   Overcast
10:52 AM 24.1 °F 8.7 °F 19.9 °F 84% 30.22 in 10.0 mi North 23.0 mph 34.5 mph N/A   Overcast
11:24 AM 24.1 °F 8.7 °F 19.9 °F 84% 30.16 in 10.0 mi North 23.0 mph 31.1 mph N/A   Overcast
11:47 AM 24.8 °F 9.6 °F 21.2 °F 86% 30.16 in 10.0 mi North 23.0 mph 29.9 mph N/A   Overcast
11:52 AM 24.1 °F 8.7 °F 21.0 °F 88% 30.23 in 10.0 mi North 23.0 mph 29.9 mph N/A   Overcast
12:06 PM 24.1 °F 8.3 °F 19.9 °F 84% 30.16 in 9.0 mi North 24.2 mph 32.2 mph 0.00 in   Overcast
12:37 PM 24.1 °F 9.0 °F 19.9 °F 84% 30.15 in 6.0 mi North 21.9 mph 29.9 mph 0.00 in Snow Light Snow
12:52 PM 24.1 °F 9.8 °F 19.9 °F 84% 30.23 in 10.0 mi NNW 19.6 mph 29.9 mph 0.00 in   Overcast
1:52 PM 24.1 °F 11.0 °F 19.9 °F 84% 30.24 in 10.0 mi NNW 16.1 mph 25.3 mph 0.00 in   Overcast
2:52 PM 24.1 °F 9.4 °F 19.0 °F 81% 30.25 in 9.0 mi North 20.7 mph - 0.00 in   Overcast
3:52 PM 24.1 °F 12.5 °F 19.9 °F 84% 30.28 in 10.0 mi North 12.7 mph 25.3 mph N/A   Overcast
4:52 PM 23.0 °F 8.7 °F 18.0 °F 81% 30.32 in 10.0 mi North 18.4 mph 26.5 mph N/A   Overcast
5:52 PM 23.0 °F 10.6 °F 18.0 °F 81% 30.34 in 8.0 mi NNW 13.8 mph - 0.00 in Snow Light Snow
6:29 PM 21.9 °F 6.2 °F 17.1 °F 82% 30.27 in 7.0 mi NNW 21.9 mph 27.6 mph 0.00 in Snow Light Snow
6:52 PM 21.9 °F 9.8 °F 18.0 °F 85% 30.35 in 4.0 mi NNW 12.7 mph 20.7 mph 0.00 in Snow Light Snow
7:52 PM 21.0 °F 7.6 °F 16.0 °F 81% 30.36 in 9.0 mi NNW 15.0 mph - 0.00 in   Overcast
8:52 PM 21.9 °F 8.7 °F 15.1 °F 75% 30.37 in 10.0 mi NNW 15.0 mph 24.2 mph 0.00 in   Overcast
9:52 PM 21.0 °F 8.6 °F 15.1 °F 78% 30.38 in 10.0 mi NNW 12.7 mph - N/A   Overcast
10:52 PM 21.0 °F 8.1 °F 16.0 °F 81% 30.39 in 10.0 mi North 13.8 mph - N/A   Overcast
11:52 PM 21.9 °F 9.2 °F 14.0 °F 72% 30.39 in 10.0 mi North 13.8 mph 21.9 mph 0.00 in Snow Light Snow